Location: Coors Field
(39.7564°N, 104.9943°W)
Time: 08:56:56
(UTC-07:00)

ISS - Visible Passes

Search period start: 21 December 2014 00:00
Search period end: 31 December 2014 00:00
Orbit: 404 x 414 km, 51.6° (Epoch: 21 December)

Date Brightness Start Highest point End Pass type
(mag) Time Alt. Az. Time Alt. Az. Time Alt. Az.
21 Dec -1.1 17:27:56 10° NNW 17:29:29 13° NNE 17:30:46 11° NE visible
22 Dec -1.7 18:13:02 10° NNW 18:15:03 23° N 18:15:03 23° N visible
23 Dec -1.6 17:22:25 10° NNW 17:24:48 18° NNE 17:26:40 12° ENE visible
23 Dec -0.8 18:58:26 10° NW 18:59:27 19° NW 18:59:27 19° NW visible
24 Dec -3.2 18:07:36 10° NW 18:10:49 53° NE 18:11:15 48° ENE visible
25 Dec -2.4 17:16:49 10° NW 17:19:48 31° NNE 17:22:45 10° E visible
25 Dec -1.4 18:53:26 10° WNW 18:56:06 28° SW 18:56:06 28° SW visible
26 Dec -2.7 18:02:13 10° WNW 18:05:26 57° SW 18:08:31 11° SE visible
27 Dec -3.4 17:11:10 10° NW 17:14:27 73° NE 17:17:42 10° ESE visible
27 Dec 0.0 18:49:34 10° WSW 18:50:34 11° SW 18:51:34 10° SW visible
28 Dec -0.6 17:57:10 10° W 17:59:43 21° SW 18:02:15 10° S visible
